EHI
0 0 0 0 0 0 0 0 0 0 0 0 0 0 0 0 0 0 0 0 1 2 4 7 12 19 28 33 33 33 33 30 26 19 12 8 7 7 6 5 3 1 1 3 3 3 2 1 0
0 0 0 0 0 0 0 0 0 0 0 0 0 0 0 0 0 0 0 0 1 3 5 8 11 16 24 30 30 30 31 29 25 20 15 11 10 8 6 5 3 2 3 4 4 4 3 2 1
0 0 0 0 0 0 0 0 0 0 0 0 0 0 0 0 0 0 0 0 1 4 7 9 11 12 18 25 27 26 27 27 23 21 19 15 12 10 7 5 5 6 7 8 8 7 5 4 2
0 0 0 0 0 0 0 0 0 0 0 0 0 0 0 0 0 0 0 0 1 5 7 8 9 10 13 20 23 23 23 22 20 20 20 18 14 10 8 8 8 8 10 13 12 9 6 5 4
0 0 0 0 0 0 0 0 0 0 0 0 0 0 0 0 0 0 0 0 2 5 7 6 6 6 9 15 20 20 19 17 16 17 19 19 16 11 11 11 8 7 11 14 12 8 5 4 4
0 0 0 0 0 0 0 0 0 0 0 0 0 0 0 0 0 0 0 0 1 4 5 4 3 3 5 10 13 15 14 14 15 15 17 18 17 13 11 11 6 4 8 11 10 6 4 3 3
0 0 0 0 0 0 0 0 0 0 0 0 0 0 0 0 0 0 0 0 1 2 3 2 1 1 2 4 6 8 9 11 12 12 12 13 12 11 9 6 4 3 6 7 6 4 3 3 3
0 0 0 0 0 0 0 0 0 0 0 0 0 0 0 0 0 0 0 0 0 1 1 1 0 0 0 1 2 3 5 6 7 7 6 5 5 6 5 3 2 2 3 3 2 2 3 3 3
0 0 0 0 0 0 0 0 0 0 0 0 0 0 0 0 0 0 0 0 0 1 1 1 0 0 0 0 1 1 3 3 2 2 1 1 1 2 2 1 0 1 1 1 0 1 2 2 1
0 0 0 0 0 0 0 0 0 0 0 0 0 0 0 0 0 0 0 0 0 0 0 0 0 0 0 0 0 2 3 2 1 0 0 0 1 1 1 1 0 0 0 0 0 0 1 1 0
0 0 0 0 0 0 0 0 0 0 0 0 0 0 0 0 0 0 0 0 0 0 0 0 0 0 0 0 1 3 4 3 1 0 0 1 2 3 3 2 0 0 0 0 0 0 0 0 0
0 0 0 0 0 0 0 0 0 0 0 0 0 0 0 0 0 0 0 0 0 0 0 0 0 0 0 0 1 3 5 4 2 0 0 1 2 4 5 4 2 1 0 0 0 0 0 0 0
0 0 0 0 0 0 0 0 0 0 0 0 0 0 0 0 0 0 0 0 0 0 0 0 0 0 0 0 0 2 4 5 2 1 0 1 2 4 5 4 3 2 1 0 0 0 0 0 0
0 0 0 0 0 0 0 0 0 0 0 0 0 0 0 0 0 0 0 0 0 0 0 0 0 0 0 0 0 1 3 3 2 1 0 1 2 3 3 3 3 2 1 0 0 0 0 0 0
0 0 0 0 0 0 0 0 0 0 0 0 0 0 0 0 0 0 0 0 0 0 0 0 0 0 0 0 0 0 1 2 2 1 0 0 1 2 3 3 3 1 0 0 0 0 0 0 0
0 0 0 0 0 0 0 0 0 0 0 0 0 0 0 0 0 0 0 0 0 0 0 0 0 0 0 0 0 0 0 1 1 1 0 0 0 1 3 4 3 1 0 0 0 0 0 0 0
0 0 0 0 0 0 0 0 0 0 0 0 0 0 0 0 0 0 0 0 0 0 0 0 0 0 0 0 0 0 0 0 1 0 0 0 0 1 3 3 2 1 0 0 0 0 0 0 0
0 0 0 0 0 0 0 0 0 0 0 0 0 0 0 0 0 0 0 0 0 0 0 0 0 0 0 0 0 0 0 0 1 1 0 0 0 0 1 1 1 0 0 0 0 0 0 0 0
0 0 0 0 0 0 0 0 0 0 0 0 0 0 0 0 0 0 0 0 0 0 0 0 0 0 0 0 0 0 0 0 1 1 1 0 0 0 0 0 0 0 0 0 0 0 0 0 0
0 0 0 0 0 0 0 0 0 0 0 0 0 0 0 0 0 0 0 0 0 0 0 0 0 0 0 0 0 0 0 0 0 1 1 1 0 0 0 0 0 0 0 0 0 0 0 0 0
0 0 0 0 0 0 0 0 0 0 0 0 0 0 0 0 0 0 0 0 0 0 0 0 0 0 0 0 0 0 0 0 0 0 1 1 0 0 0 0 0 0 0 0 0 0 0 0 0
0 0 0 0 0 0 0 0 0 0 0 0 0 0 0 0 0 0 0 0 0 0 0 0 0 0 0 0 0 0 0 0 0 0 0 0 0 0 0 0 0 0 0 0 0 0 0 0 0
0 0 0 0 0 0 0 0 0 0 0 0 0 0 0 0 0 0 0 0 0 0 0 0 0 0 0 0 0 0 0 0 0 0 0 0 0 0 0 0 0 0 0 0 0 0 0 0 0
0 0 0 0 0 0 0 0 0 0 0 0 0 0 0 0 0 0 0 0 0 0 0 0 0 0 0 0 0 0 0 0 0 0 0 0 0 0 0 0 0 0 0 0 0 0 0 0 0
0 0 0 0 0 0 0 0 0 0 0 0 0 0 0 0 0 0 0 0 0 0 0 0 0 0 0 0 0 0 0 0 0 0 0 0 0 0 0 0 0 0 0 0 0 0 0 0 0
0 0 0 0 0 0 0 0 0 0 0 0 0 0 0 0 0 0 0 0 0 0 0 0 0 0 0 0 0 0 0 0 0 0 0 0 0 0 0 0 0 0 0 0 0 0 0 0 0
0 0 0 0 0 0 0 0 0 0 0 0 0 0 0 0 0 0 0 0 0 0 0 0 0 0 0 0 0 0 0 0 0 0 0 0 0 0 0 0 0 0 0 0 0 0 0 0 0
0 0 0 0 0 0 0 0 0 0 0 0 0 0 0 0 0 0 0 0 0 0 0 0 0 0 0 0 0 0 0 0 0 0 0 0 0 0 0 0 0 0 0 0 0 0 0 0 0
0 0 0 0 0 0 0 0 0 0 0 0 0 0 0 0 0 0 0 0 0 0 0 0 0 0 0 0 0 0 0 0 0 0 0 0 0 0 0 0 0 0 0 0 0 0 0 0 0
0 0 0 0 0 0 0 0 0 0 0 0 0 0 0 0 0 0 0 0 0 0 0 0 0 0 0 0 0 0 0 0 0 0 0 0 0 0 0 0 0 0 0 0 0 0 0 0 0
Wind_Speed
2 2 2 4 5 6 9 6 4 4 4 2 3 5 5 5 3 2 5 8 9 6 2 3 3 5 7 9 10 10 11 13 15 15 15 15 15 14 14 14 13 13 12 13 13 13 13 13 13
1 1 4 4 7 8 7 6 8 5 1 1 4 5 5 4 2 4 4 8 8 6 3 1 2 4 5 7 9 10 11 13 14 15 15 15 15 15 14 14 14 13 12 12 12 13 13 13 12
1 1 4 5 7 7 4 4 5 3 1 2 3 3 4 2 1 2 6 8 7 5 3 2 2 2 4 5 7 9 10 11 13 14 15 15 15 15 15 14 13 12 11 12 12 13 13 12 12
3 3 3 6 9 5 2 2 2 4 3 2 3 4 2 1 2 4 7 8 7 5 4 2 1 1 3 4 6 7 10 11 12 14 14 15 15 15 15 13 12 11 11 12 13 13 13 12 12
2 4 6 7 8 4 4 2 2 4 3 2 4 5 4 1 1 4 6 7 7 6 4 2 2 2 3 4 6 6 8 10 11 12 14 15 15 14 14 13 12 12 12 13 14 13 13 12 12
4 4 6 9 8 4 5 5 5 6 5 4 5 7 5 1 2 5 7 8 7 6 5 3 2 2 3 4 5 7 6 8 10 11 12 14 14 13 13 14 13 13 13 13 14 13 13 12 11
4 4 5 5 5 5 4 4 6 7 7 5 4 7 4 3 3 7 8 8 7 6 5 4 3 3 4 5 5 6 7 7 7 9 11 11 12 12 13 13 14 14 13 13 13 13 12 12 11
2 3 5 5 6 4 2 3 3 6 8 4 5 7 5 3 7 9 9 8 7 6 5 5 4 4 5 5 6 6 7 7 7 7 9 9 10 11 12 13 12 13 12 12 12 12 12 11 10
3 5 6 5 4 2 2 3 3 4 6 6 7 9 9 10 11 10 9 8 8 7 6 5 5 5 5 6 6 7 7 8 8 8 8 9 10 12 11 13 11 12 12 12 12 12 11 10 9
5 6 4 2 2 2 3 5 6 6 9 10 10 11 11 11 11 11 11 10 10 9 8 6 6 5 5 5 5 5 6 7 8 8 9 9 9 8 9 11 11 11 11 12 12 11 11 9 8
4 5 2 3 4 5 6 8 7 9 11 11 12 13 12 13 12 12 12 11 11 10 9 8 7 7 6 5 4 4 4 5 7 9 10 8 7 6 7 6 8 10 11 10 10 11 9 9 6
4 4 4 4 4 6 8 8 9 11 14 12 13 14 15 15 14 13 13 12 11 11 11 9 8 7 7 6 5 5 4 4 5 7 9 7 5 6 6 6 8 8 7 8 8 7 9 9 9
6 4 5 7 8 10 11 13 13 14 14 14 14 14 15 15 14 13 13 13 12 12 11 10 9 8 7 6 6 6 6 5 6 6 8 9 7 6 7 6 7 8 8 8 8 8 9 9 9
3 5 7 8 9 8 10 12 10 11 10 10 11 12 12 13 13 13 12 12 12 11 11 10 9 9 8 7 7 6 6 6 6 6 8 9 7 7 7 7 7 8 7 8 8 9 8 8 7
2 5 6 6 6 4 6 9 8 8 8 10 11 11 11 11 11 11 11 11 11 11 10 10 9 8 8 9 9 6 6 6 6 6 8 9 8 8 7 7 7 7 8 8 7 9 8 7 7
3 4 4 2 3 3 6 8 5 6 8 11 11 10 10 10 10 10 10 10 10 10 9 9 8 8 8 8 8 6 6 6 6 6 6 9 10 9 8 7 7 7 7 7 7 7 7 7 7
3 3 4 2 2 3 5 9 9 9 10 11 10 9 9 9 9 9 10 10 9 9 9 8 8 8 7 7 7 7 6 6 5 5 6 7 9 9 8 6 6 8 7 7 7 7 7 8 8
2 3 4 5 2 5 8 11 11 10 9 9 9 8 8 8 9 10 10 10 9 8 7 7 7 7 6 6 5 5 5 5 5 5 6 7 7 9 8 6 7 8 7 7 7 8 8 7 7
2 4 7 6 5 7 9 11 11 9 8 8 7 7 7 9 10 9 9 9 7 6 5 5 6 6 5 5 5 5 6 5 5 5 7 8 7 9 8 7 8 7 7 8 9 8 9 7 6
5 6 7 5 3 6 8 11 8 6 5 7 8 8 9 10 10 10 10 8 7 6 5 5 5 5 5 5 5 5 5 5 5 5 6 7 7 8 8 8 7 8 7 9 9 9 7 6 6
5 6 5 6 8 4 6 5 1 2 4 6 8 8 9 10 11 11 10 9 8 6 5 4 4 5 5 6 5 4 4 5 5 5 5 6 8 8 8 9 8 8 8 8 9 9 10 7 7
4 3 5 7 6 3 4 4 2 3 5 8 10 10 10 11 10 10 10 10 8 7 5 4 4 4 4 4 5 7 6 6 6 5 5 6 7 8 8 8 8 8 7 8 8 9 8 9 8
3 4 5 5 4 4 3 4 3 2 5 9 10 11 11 11 11 10 10 9 7 6 5 4 4 3 3 3 5 6 6 6 5 5 6 5 5 6 7 7 7 7 7 8 8 8 9 8 8
4 4 3 2 3 3 2 4 3 2 5 8 9 11 11 11 11 10 9 8 7 6 5 4 3 2 2 3 3 4 6 6 6 6 5 4 4 4 6 6 7 7 6 7 8 8 9 8 9
2 3 2 2 2 1 1 4 3 3 4 6 8 10 10 11 11 10 9 8 7 7 6 4 2 1 1 2 2 2 3 5 5 5 5 4 3 3 4 5 5 5 6 6 7 7 7 8 9
1 2 2 3 2 2 2 4 1 2 4 5 5 7 9 10 10 10 9 7 7 7 6 5 3 2 2 1 1 1 1 3 3 3 3 2 2 3 4 4 5 5 6 6 6 6 6 6 7
1 1 1 1 2 4 2 2 2 1 4 5 6 7 9 10 10 10 9 8 7 7 6 5 3 3 3 2 2 1 1 2 2 2 2 2 2 3 4 4 4 5 6 6 6 5 6 6 6
2 1 2 2 2 3 3 2 2 3 4 4 6 7 8 9 10 10 9 9 8 7 7 6 5 4 4 4 3 2 3 2 0 0 1 2 2 3 3 4 4 4 5 5 5 5 5 5 5
2 2 2 2 3 3 3 1 1 3 3 3 5 6 7 8 8 8 8 8 8 8 8 8 7 6 5 5 4 5 4 3 2 1 1 1 1 2 2 3 4 4 4 4 5 6 6 6 6
2 2 2 3 2 3 3 2 2 2 2 2 4 6 6 7 7 7 8 8 8 8 8 7 7 7 6 5 5 5 5 4 4 3 2 1 1 1 1 2 2 3 3 3 3 5 5 6 6
Wind_Direction
333 304 219 192 198 219 228 211 206 187 195 221 256 253 253 247 257 52 45 8 352 350 346 163 161 165 167 172 169 170 169 169 168 169 169 170 168 166 163 161 159 156 153 150 144 139 136 132 128
336 222 188 199 222 220 216 208 205 196 155 276 237 241 240 234 353 27 17 358 351 360 8 143 129 155 165 169 173 172 172 174 173 172 173 173 172 170 167 165 162 159 155 149 144 139 136 133 131
143 261 196 200 222 232 200 172 204 185 208 252 230 241 256 266 20 24 9 347 351 6 9 45 92 158 164 168 174 181 178 177 179 177 177 177 176 174 171 168 163 157 152 146 142 140 138 137 136
189 170 196 225 222 228 241 124 148 198 199 229 266 238 229 330 349 3 353 347 350 0 2 23 50 185 182 176 176 183 185 182 183 183 181 179 179 177 173 165 160 155 151 148 146 144 144 142 141
200 193 200 221 228 214 221 227 230 222 218 228 264 267 256 191 311 335 341 342 343 344 344 351 336 250 212 198 187 186 191 189 188 188 187 183 180 179 173 164 161 159 156 155 153 151 151 149 149
174 203 214 222 217 213 223 228 237 243 246 260 270 269 265 233 291 329 332 329 329 327 323 319 311 269 234 215 204 196 189 193 194 193 191 188 183 179 173 167 165 165 164 161 159 158 157 156 157
200 206 229 231 225 221 209 215 236 250 253 260 278 270 257 252 318 325 323 318 317 314 307 299 279 250 228 226 218 208 200 199 200 198 193 191 187 181 176 171 170 170 170 167 164 163 164 164 162
228 212 214 219 225 221 174 209 257 265 269 281 262 257 260 320 328 319 314 311 307 304 300 292 275 260 239 221 216 215 209 205 204 198 190 184 182 183 177 176 174 174 172 169 168 167 168 168 165
206 221 223 214 221 206 185 240 265 278 265 257 253 265 289 308 310 308 304 303 300 297 294 288 277 265 252 236 219 212 208 206 203 197 187 187 193 190 184 184 175 177 176 173 173 172 171 169 166
205 223 225 214 235 256 263 273 288 271 262 261 259 266 279 289 293 292 290 292 293 292 291 282 276 266 254 246 225 215 213 206 208 204 196 200 199 195 191 174 174 179 177 176 177 174 173 185 180
205 230 214 226 243 270 275 277 275 269 266 268 278 286 287 286 285 282 279 279 281 285 285 280 275 264 251 240 234 221 218 211 212 211 203 201 198 193 189 176 176 183 181 185 179 180 189 197 192
209 229 237 245 255 262 270 276 271 257 265 284 286 287 288 286 282 279 277 276 276 276 277 276 269 262 252 242 236 225 219 215 210 211 209 201 196 196 190 187 186 187 188 191 190 195 194 200 198
218 235 245 256 263 265 268 264 270 268 272 279 281 280 279 280 280 277 275 272 269 268 269 267 262 257 253 245 237 230 221 219 213 210 209 204 196 198 197 194 189 189 189 190 193 197 195 199 203
228 250 267 271 264 261 265 269 262 264 278 284 282 282 280 281 283 284 281 273 266 264 266 266 258 252 249 244 238 233 223 219 214 209 210 206 201 198 197 197 194 192 192 194 197 199 197 202 205
245 261 263 249 252 254 275 265 244 269 290 291 290 287 286 286 287 286 286 281 272 266 263 261 259 250 245 243 239 233 220 216 212 209 209 206 203 200 198 198 195 195 193 194 198 199 201 204 206
216 237 248 206 249 240 265 275 288 303 302 300 299 296 293 295 296 297 293 287 279 271 263 255 254 249 242 239 235 229 221 215 213 210 207 207 203 201 199 198 197 195 194 196 197 198 200 202 208
198 246 269 278 232 260 266 282 303 311 306 303 305 305 301 303 309 312 307 294 286 277 263 252 248 247 241 237 232 226 220 219 217 210 207 206 203 202 201 199 199 195 195 198 198 198 201 204 207
213 263 272 280 290 281 277 282 300 310 313 309 312 315 314 318 319 320 315 304 290 277 261 250 247 243 235 230 224 219 215 218 218 213 205 204 202 202 202 201 204 198 197 200 201 201 203 208 207
252 266 276 281 297 291 282 290 301 314 322 324 328 330 327 325 325 326 320 313 304 293 267 251 247 241 233 222 213 211 213 211 215 213 209 206 206 204 204 205 203 203 203 204 205 202 203 205 201
240 260 273 289 297 292 292 294 300 316 330 342 342 341 337 332 331 331 326 324 316 303 286 267 254 248 239 226 214 214 215 215 217 211 212 209 211 209 207 207 205 207 207 207 206 202 200 199 194
247 249 273 299 313 281 289 284 283 7 4 2 359 350 342 337 332 329 330 330 324 316 306 287 271 255 245 230 212 208 212 214 216 209 212 212 213 211 210 209 207 210 210 209 207 206 205 201 196
264 255 271 288 298 296 313 293 290 343 348 356 354 351 348 342 337 333 332 329 325 321 314 301 279 263 249 235 217 208 213 218 220 215 214 211 215 214 212 212 212 214 213 213 212 211 212 206 201
274 294 277 276 268 273 250 259 278 346 341 345 346 349 348 345 341 337 334 332 328 324 319 309 287 269 258 246 232 213 218 224 220 211 212 216 216 216 214 211 213 217 219 217 215 211 212 213 212
271 274 252 224 229 249 236 248 279 356 336 333 338 344 345 345 345 343 342 343 343 339 330 315 283 269 258 248 243 219 217 221 217 211 209 216 216 216 216 215 214 220 225 221 218 215 214 216 217
262 284 256 217 223 252 123 253 276 356 340 327 331 339 344 348 349 351 352 353 352 350 345 337 333 319 293 263 249 221 230 229 221 216 213 217 219 219 217 216 215 217 225 222 220 221 221 220 218
280 289 321 308 313 321 242 259 316 16 339 337 340 345 349 355 357 359 359 357 357 356 354 2 14 24 21 5 332 291 268 242 221 213 210 220 224 224 222 217 218 218 223 222 217 219 223 222 220
220 209 339 282 283 270 261 276 268 337 338 344 347 352 355 356 357 0 2 3 360 357 356 5 24 29 22 18 6 346 331 288 233 220 216 231 235 227 226 221 219 222 227 226 218 218 223 225 224
280 228 210 244 285 290 282 266 300 304 314 330 339 347 351 354 356 358 1 5 7 7 9 17 26 35 26 20 14 13 5 333 302 181 229 247 244 231 229 229 223 225 230 226 221 221 223 227 228
180 197 229 245 279 287 297 328 46 292 299 313 331 341 344 349 352 358 3 6 9 13 14 18 24 24 20 22 22 23 13 2 39 49 19 301 286 237 226 232 231 226 232 231 223 222 220 227 230
260 248 234 270 253 254 276 286 58 319 300 314 326 335 343 348 352 1 7 8 10 13 12 13 18 26 23 26 28 22 14 23 43 45 23 349 325 281 240 231 242 238 236 236 233 233 230 230 233